Location: B�rgermoos
(47.6500°N, 9.0667°E)
Time: 05:07:16
(UTC+00:00)

USA 234 - Pass Details

Date: 18 September 2020
Orbit: 1102 x 1106 km, 123.0° (Epoch: 16 October)

Event Time Altitude Azimuth Distance (km) Brightness Sun altitude
Rises 18:33:39 0° 57° (ENE) 3,927 5.8 -11.6°
Reaches altitude 10° 18:36:27 10° 67° (ENE) 2,966 5.1 -12.0°
Maximum altitude 18:42:14 33° 129° (SE) 1,775 3.9 -13.0°
Drops below altitude 10° 18:47:59 10° 191° (S) 2,955 5.4 -13.9°
Sets 18:50:46 0° 201° (SSW) 3,910 6.2 -14.3°
